{"data":{"norad_id":62564,"epoch":"2026-09-21T16:08:17.218464Z","epoch_age_seconds":69961,"freshness":"FRESH","line1":"1 62564U 25006L   26264.67242151  .00148750  00000+0  11405-2 0  9991","line2":"2 62564  43.0011  38.7290 0001884 259.1637 100.9018 15.70872949 97420","mean_motion":15.70872949,"eccentricity":0.0001884,"inclination_deg":43.0011,"raan_deg":38.729,"arg_perigee_deg":259.1637,"mean_anomaly_deg":100.9018,"bstar":0.0011405,"rev_number":9742,"period_min":91.668775690401,"perigee_km":355.13210186789,"apogee_km":357.6696757444,"semimajor_km":6734.5378888061,"source":"CELESTRAK","updated_at":"2026-09-22T09:00:49.627950Z"}}